Погода в Заречном

Россия / Владимирская область     55°56′09″N   39°55′06″E
темп.,
°C
ветер,
м/с
пор.,
м/с
влажн.,
%
обл.,
%
осадки,
мм/ч
давл.,
гПа
погр.,
м
16 сентября, чт
чт1600:00+4зсз379527 0.0 1013170
03:00+4зсз399490 0.0 1014295
06:00+6сз3894100 0.5 1015526
09:00+7с368692 0.6 1016527
12:00+10ссз4556100 0.0 10171370
15:00+10сз4554100 0.0 10181464
18:00+8ссз3662100 0.0 1019525
21:00+6ссз2569100 0.0 1019392
17 сентября, пт
пт1700:00+6сз2573100 0.0 1019299
03:00+5сз2574100 0.0 1020306
06:00+4сз258194 0.0 1020190
09:00+7с346396 0.0 1020574
12:00+10с3448100 0.1 10191841
15:00+10с3445100 0.1 10201530
18:00+8с235370 0.0 102088
21:00+5с367924 0.0 1022145
18 сентября, сб
сб1800:00+2с36925 0.0 1023109
03:00+1ссв22937 0.0 102438
06:00+1ссв11885 0.0 102410
09:00+7ссв246175 0.0 1025433
12:00+9св345498 0.0 10251357
15:00+10св344982 0.0 10251490
18:00+7св586530 0.0 1025361
21:00+3всв377696 0.0 1026135
19 сентября, вс
вс1900:00+2всв3676100 0.0 1026138
03:00+1всв3779100 0.0 1026168
06:00+2в3878100 0.0 1026220
09:00+5в4763100 0.0 1026427
12:00+7в5653100 0.0 1025890
15:00+8в4652100 0.0 10241102
18:00+7в4858100 0.0 1023878
21:00+5всв5116393 0.0 1023472
20 сентября, пн
пн2000:00+5всв51261100 0.0 1022459
03:00+5всв51162100 0.1 1021523
06:00+3всв51286100 1.2 1022671
09:00+3всв71596100 3.8 1022699
12:00+4всв71594100 0.7 1021853
15:00+5всв71489100 1.1 10211058
18:00+4всв71495100 0.1 1021909
21:00+4всв71496100 0.4 1021850